Location: Krasnoyarskiy Pitomnik
(51.1333°N, 71.6167°E)
Time: 12:36:52
(UTC+00:00)

NOSS 2-2 (C) - Visible Passes

Search period start: 29 May 2022 00:00
Search period end: 08 June 2022 00:00
Orbit: 439 x 1763 km, 63.3° (Epoch: 26 May)

Date Brightness Start Highest point End Pass type
(mag) Time Alt. Az. Time Alt. Az. Time Alt. Az.
29 May 5.6 16:35:30 10° NNW 16:39:10 26° NNE 16:43:48 10° E visible
29 May 4.2 18:25:27 10° NW 18:30:13 84° NE 18:35:19 17° SE visible
29 May 5.6 20:16:24 10° WNW 20:20:41 24° WSW 20:22:36 21° SW visible
30 May 4.5 17:39:20 10° NW 17:43:53 58° NE 17:49:57 11° ESE visible
30 May 5.0 19:29:46 10° WNW 19:34:29 36° SW 19:37:14 25° SSW visible
31 May 5.0 16:53:14 10° NW 16:57:29 40° NE 17:03:12 10° ESE visible
31 May 4.5 18:43:22 10° NW 18:48:14 54° SW 18:51:55 25° SSE visible
31 May 6.3 20:36:22 10° W 20:38:25 12° WSW 20:39:12 11° WSW visible
01 Jun 5.4 16:07:08 10° NNW 16:10:59 29° NNE 16:15:58 10° E visible
01 Jun 4.2 17:57:07 10° NW 18:01:56 82° SW 18:06:41 20° SE visible
01 Jun 5.9 19:48:26 10° WNW 19:52:20 19° WSW 19:53:58 18° SW visible
02 Jun 4.3 17:10:56 10° NW 17:15:35 69° NE 17:21:29 13° SE visible
02 Jun 5.4 19:01:34 10° WNW 19:06:08 30° WSW 19:08:47 22° SSW visible
03 Jun 4.8 16:24:48 10° NW 16:29:11 47° NE 16:35:12 10° ESE visible
03 Jun 4.8 18:15:03 10° NW 18:19:52 45° SW 18:23:39 23° S visible
04 Jun 4.3 17:28:42 10° NW 17:33:33 69° SW 17:38:33 18° SSE visible
04 Jun 6.2 19:20:32 10° W 19:23:53 16° WSW 19:25:51 14° SW visible
05 Jun 4.2 16:42:28 10° NW 16:47:12 81° NE 16:53:29 12° SE visible
05 Jun 5.7 18:33:21 10° WNW 18:37:41 25° WSW 18:40:47 18° SSW visible
06 Jun 4.6 15:56:16 10° NW 16:00:47 55° NE 16:07:03 10° ESE visible
06 Jun 5.1 17:46:39 10° WNW 17:51:24 38° SW 17:55:46 18° S visible
07 Jun 4.6 17:00:13 10° NW 17:05:04 57° SW 17:10:47 14° SSE visible
07 Jun 6.5 18:52:54 10° W 18:55:17 12° WSW 18:57:57 10° SW visible
